Location: Bonny Doon Airfield
(37.0704°N, 122.1252°W)
Time: 02:46:53
(UTC-07:00)

Tiangong 2 - Pass Details

Date: 07 October 2017
Orbit: 388 x 391 km, 42.8° (Epoch: 22 October)

Event Time Altitude Azimuth Distance (km) Brightness Sun altitude
Exits shadow 05:17:42 15° 149° (SSE) 1,137 3.6 -23.0°
Maximum altitude 05:17:59 16° 142° (SE) 1,130 3.7 -22.9°
Drops below altitude 10° 05:19:59 10° 103° (ESE) 1,417 4.8 -22.6°
Sets 05:22:38 0° 80° (E) 2,276 6.5 -22.0°
